Hourly Weather Kitchener

Today, 25 July, Sunday

Time Temperature Precipitation Wind Pressure Humidity
00:00 +20°C° 0.1 mm 4 mps 727 mmHg 96%
01:00 +19°C° 0 mm 3 mps 727 mmHg 97%
02:00 +19°C° 0 mm 3 mps 727 mmHg 97%
03:00 +18°C° 0 mm 3 mps 727 mmHg 97%
04:00 +17°C° 0 mm 3 mps 727 mmHg 96%
05:00 +18°C° 0 mm 3 mps 728 mmHg 96%
06:00 +19°C° 0 mm 3 mps 728 mmHg 95%
07:00 +20°C° 0 mm 4 mps 728 mmHg 95%
08:00 +22°C° 0 mm 4 mps 729 mmHg 85%
09:00 +23°C° 0 mm 4 mps 729 mmHg 76%
10:00 +26°C° 0 mm 4 mps 729 mmHg 66%
11:00 +27°C° 0 mm 4 mps 729 mmHg 62%
12:00 +28°C° 0 mm 4 mps 729 mmHg 57%
13:00 +29°C° 0 mm 5 mps 729 mmHg 53%
14:00 +28°C° 0 mm 5 mps 729 mmHg 56%
15:00 +28°C° 0 mm 5 mps 729 mmHg 59%
16:00 +28°C° 0 mm 5 mps 729 mmHg 62%
17:00 +27°C° 0 mm 4 mps 729 mmHg 67%
18:00 +25°C° 0 mm 3 mps 729 mmHg 73%
19:00 +24°C° 0 mm 2 mps 729 mmHg 78%
20:00 +23°C° 0 mm 2 mps 730 mmHg 79%
21:00 +21°C° 0 mm 2 mps 730 mmHg 80%
22:00 +21°C° 0 mm 1 mps 730 mmHg 81%
23:00 +19°C° 0 mm 2 mps 730 mmHg 78%

Tomorrow, 26 July, Monday

Time Temperature Precipitation Wind Pressure Humidity
00:00 +19°C° 0 mm 2 mps 730 mmHg 75%
01:00 +19°C° 0 mm 2 mps 730 mmHg 72%
02:00 +18°C° 0 mm 2 mps 730 mmHg 71%
03:00 +17°C° 0 mm 3 mps 730 mmHg 71%
04:00 +17°C° 0 mm 3 mps 730 mmHg 70%
05:00 +18°C° 0 mm 3 mps 731 mmHg 72%
06:00 +18°C° 0 mm 3 mps 731 mmHg 75%
07:00 +19°C° 0 mm 3 mps 732 mmHg 77%
08:00 +21°C° 0 mm 3 mps 732 mmHg 70%
09:00 +24°C° 0 mm 3 mps 732 mmHg 64%
10:00 +26°C° 0 mm 3 mps 732 mmHg 57%
11:00 +27°C° 0 mm 3 mps 732 mmHg 55%
12:00 +28°C° 0 mm 4 mps 732 mmHg 52%
13:00 +29°C° 0 mm 4 mps 732 mmHg 49%
14:00 +28°C° 0 mm 4 mps 732 mmHg 52%
15:00 +28°C° 0 mm 4 mps 732 mmHg 56%
16:00 +28°C° 0 mm 4 mps 732 mmHg 59%
17:00 +27°C° 0 mm 4 mps 732 mmHg 66%
18:00 +25°C° 0 mm 3 mps 732 mmHg 72%
19:00 +24°C° 0 mm 3 mps 731 mmHg 79%
20:00 +22°C° 0 mm 3 mps 731 mmHg 83%
21:00 +21°C° 0 mm 3 mps 732 mmHg 86%
22:00 +19°C° 0 mm 3 mps 732 mmHg 90%
23:00 +19°C° 0 mm 3 mps 732 mmHg 88%

Day after tomorrow, 27 July, Tuesday

Time Temperature Precipitation Wind Pressure Humidity
00:00 +19°C° 0 mm 3 mps 732 mmHg 87%
01:00 +19°C° 0 mm 3 mps 732 mmHg 86%
02:00 +19°C° 0 mm 4 mps 732 mmHg 86%
03:00 +19°C° 0 mm 4 mps 732 mmHg 85%
04:00 +19°C° 0 mm 4 mps 732 mmHg 85%
05:00 +19°C° 0.2 mm 4 mps 732 mmHg 87%
06:00 +19°C° 0.2 mm 4 mps 732 mmHg 89%
07:00 +20°C° 0.2 mm 3 mps 732 mmHg 91%
08:00 +21°C° 0 mm 4 mps 732 mmHg 88%
09:00 +22°C° 0 mm 4 mps 733 mmHg 84%
10:00 +23°C° 0 mm 5 mps 733 mmHg 81%
11:00 +23°C° 0.2 mm 5 mps 733 mmHg 80%
12:00 +23°C° 0.2 mm 6 mps 733 mmHg 79%
13:00 +24°C° 0.2 mm 6 mps 733 mmHg 78%
14:00 +25°C° 0.1 mm 5 mps 733 mmHg 75%
15:00 +25°C° 0.1 mm 4 mps 733 mmHg 72%
16:00 +25°C° 0.1 mm 3 mps 733 mmHg 69%
17:00 +25°C° 0 mm 3 mps 733 mmHg 73%
18:00 +24°C° 0 mm 2 mps 733 mmHg 78%
19:00 +23°C° 0 mm 2 mps 734 mmHg 82%
20:00 +21°C° 0 mm 2 mps 734 mmHg 85%
21:00 +19°C° 0 mm 2 mps 734 mmHg 87%
22:00 +18°C° 0 mm 2 mps 734 mmHg 89%
23:00 +19°C° 0.2 mm 1 mps 734 mmHg 90%

28 July, Wednesday

Time Temperature Precipitation Wind Pressure Humidity
00:00 +18°C° 0.2 mm 1 mps 734 mmHg 90%
01:00 +16°C° 0.2 mm 0 mps 734 mmHg 90%
02:00 +15°C° 0 mm 0 mps 734 mmHg 89%
03:00 +15°C° 0 mm 0 mps 734 mmHg 89%
04:00 +15°C° 0 mm 0 mps 734 mmHg 88%
05:00 +16°C° 0.1 mm 0 mps 734 mmHg 87%
06:00 +17°C° 0.1 mm 0 mps 734 mmHg 86%
07:00 +18°C° 0.1 mm 0 mps 734 mmHg 84%
08:00 +19°C° 0 mm 0 mps 734 mmHg 84%
09:00 +22°C° 0 mm 1 mps 734 mmHg 83%
10:00 +23°C° 0 mm 1 mps 734 mmHg 82%
11:00 +23°C° 0.1 mm 1 mps 734 mmHg 80%
12:00 +24°C° 0.1 mm 1 mps 734 mmHg 79%
13:00 +25°C° 0.1 mm 1 mps 733 mmHg 77%
14:00 +26°C° 0.4 mm 1 mps 733 mmHg 77%
15:00 +26°C° 0.4 mm 2 mps 733 mmHg 76%
16:00 +27°C° 0.4 mm 2 mps 733 mmHg 75%
17:00 +26°C° 0.3 mm 2 mps 732 mmHg 79%
18:00 +25°C° 0.3 mm 1 mps 732 mmHg 83%
19:00 +24°C° 0.3 mm 1 mps 732 mmHg 87%
20:00 +23°C° 0.6 mm 2 mps 731 mmHg 90%
21:00 +23°C° 0.6 mm 2 mps 731 mmHg 93%
22:00 +21°C° 0.6 mm 2 mps 730 mmHg 96%
23:00 +20°C° 1.5 mm 2 mps 730 mmHg 96%

29 July, Thursday

Time Temperature Precipitation Wind Pressure Humidity
00:00 +21°C° 1.5 mm 1 mps 729 mmHg 97%
01:00 +21°C° 1.5 mm 1 mps 728 mmHg 97%
02:00 +20°C° 5.4 mm 2 mps 728 mmHg 97%
03:00 +19°C° 5.4 mm 3 mps 727 mmHg 98%
04:00 +19°C° 5.4 mm 4 mps 727 mmHg 98%
05:00 +19°C° 3.3 mm 4 mps 726 mmHg 98%
06:00 +20°C° 3.3 mm 4 mps 726 mmHg 97%
07:00 +20°C° 3.3 mm 4 mps 725 mmHg 97%
08:00 +21°C° 0.1 mm 4 mps 725 mmHg 95%
09:00 +22°C° 0.1 mm 5 mps 725 mmHg 94%
10:00 +23°C° 0.1 mm 5 mps 725 mmHg 92%
11:00 +23°C° 0.1 mm 5 mps 725 mmHg 93%
12:00 +22°C° 0.1 mm 5 mps 725 mmHg 94%
13:00 +22°C° 0.1 mm 5 mps 725 mmHg 96%
14:00 +22°C° 0 mm 5 mps 726 mmHg 91%
15:00 +22°C° 0 mm 6 mps 726 mmHg 87%
16:00 +23°C° 0 mm 7 mps 727 mmHg 83%
17:00 +22°C° 0 mm 7 mps 727 mmHg 80%
18:00 +21°C° 0 mm 7 mps 728 mmHg 78%
19:00 +20°C° 0 mm 7 mps 728 mmHg 76%
20:00 +19°C° 0 mm 6 mps 729 mmHg 77%
21:00 +17°C° 0 mm 5 mps 730 mmHg 79%
22:00 +15°C° 0 mm 4 mps 731 mmHg 81%
23:00 +14°C° 0 mm 4 mps 731 mmHg 84%

30 July, Friday

Time Temperature Precipitation Wind Pressure Humidity
00:00 +13°C° 0 mm 4 mps 731 mmHg 88%
01:00 +12°C° 0 mm 3 mps 731 mmHg 91%
02:00 +12°C° 0 mm 4 mps 731 mmHg 90%
03:00 +11°C° 0 mm 4 mps 731 mmHg 89%
04:00 +11°C° 0 mm 4 mps 731 mmHg 88%
05:00 +11°C° 0 mm 4 mps 732 mmHg 86%
06:00 +10°C° 0 mm 5 mps 732 mmHg 85%
07:00 +12°C° 0 mm 5 mps 733 mmHg 84%
08:00 +13°C° 0 mm 5 mps 733 mmHg 76%
09:00 +14°C° 0 mm 6 mps 733 mmHg 68%
10:00 +16°C° 0 mm 6 mps 734 mmHg 61%
11:00 +17°C° 0 mm 6 mps 734 mmHg 58%
12:00 +17°C° 0 mm 6 mps 734 mmHg 55%
13:00 +19°C° 0 mm 5 mps 734 mmHg 52%
14:00 +19°C° 0 mm 5 mps 734 mmHg 53%
15:00 +19°C° 0 mm 5 mps 734 mmHg 55%
16:00 +19°C° 0 mm 5 mps 734 mmHg 56%
17:00 +18°C° 0 mm 4 mps 734 mmHg 63%
18:00 +17°C° 0 mm 4 mps 734 mmHg 70%
19:00 +16°C° 0 mm 3 mps 734 mmHg 78%
20:00 +15°C° 0 mm 2 mps 734 mmHg 78%
21:00 +14°C° 0 mm 2 mps 733 mmHg 79%
22:00 +13°C° 0 mm 1 mps 733 mmHg 80%
23:00 +12°C° 0 mm 2 mps 733 mmHg 78%
Show more